sat.trackr.live / text

‹ back to catalog

STARLINK-4483

NORAD 53532 · 2022-101F

PAYLOAD ACTIVE UNKNOWN

§ Identity

Operator
Country
US
Launch date
2022-08-19
Launch site
AFETR
Launch vehicle
Mass (kg)
RCS (m²)

Purposes: comms

External: N2YO · Heavens-Above · Gunter

§ Orbital elements

Epoch: 2026-05-25T02:38:40.499808Z

Period
95.44 min
Inclination
53.2156°
Eccentricity
0.0001477
Mean motion
15.08840239 rev/d
Perigee alt
538.7 km
Apogee alt
540.8 km
Semi-major
6,917.9 km
B*
6.2590e-5
RAAN
91.0525°
Arg perigee
75.6720°
Mean anomaly
284.4436°
Rev number
20,770

§ Raw data

STARLINK-44831 53532U 22101F   26145.11019097  .00000708  00000+0  62590-4 0  99902 53532  53.2156  91.0525 0001477  75.6720 284.4436 15.08840239207707

JSON: /api/v1/satellites/53532 · /tle

For live sub-satellite position, see the globe view (requires WebGL).

§ Visibility from observer

Set your observer location to see the next 7 days of passes ≥ 10°. The values pass through the URL so the page stays shareable.

No JS? Fill the form by hand. The geolocation button needs JavaScript.